Wind_Speed
13 12 11 10 8 7 5 7 5 4 4 4 5 6 6 7 6 4 4 5 6 4 2 2 1 2 2 4 4 3 2 2 2 3 3 4 6 8 10 12 13 14 15 14 14 13 14 13 12
14 12 12 11 9 5 4 8 9 8 3 3 5 3 2 2 1 3 3 6 5 5 3 0 3 4 3 5 6 7 6 4 2 1 2 4 5 8 11 13 13 13 15 16 15 15 13 13 13
17 14 14 13 11 12 11 11 7 7 4 2 10 6 5 8 9 8 6 6 3 5 3 3 4 4 4 6 7 8 8 8 6 4 3 4 6 9 11 13 14 15 15 15 16 15 15 15 14
18 16 14 7 15 13 9 9 4 5 3 4 8 7 8 14 11 8 6 5 7 5 5 3 4 6 5 7 8 9 10 9 8 7 5 5 6 8 11 13 16 17 17 15 15 16 16 15 15
19 18 14 11 13 12 12 9 5 7 6 2 7 11 16 17 11 5 3 4 5 7 7 8 7 3 5 7 8 11 11 10 9 9 8 9 10 11 13 15 18 19 18 16 16 16 16 15 14
21 19 11 7 16 13 11 11 10 10 9 7 5 16 18 18 11 6 5 3 4 3 5 6 6 4 2 5 7 10 11 12 12 12 12 11 12 14 15 19 19 20 18 18 18 17 16 16 15
24 23 14 14 15 15 13 11 11 10 10 8 12 17 18 17 10 5 5 4 5 6 2 2 2 1 2 3 7 11 13 14 15 15 15 15 15 16 18 20 21 18 19 19 19 19 16 16 16
25 25 24 24 18 18 15 13 13 13 13 13 13 17 12 16 9 5 5 7 7 9 6 4 5 6 5 6 8 11 14 16 16 17 17 17 17 19 20 22 23 21 21 22 20 19 20 18 17
23 26 20 28 24 22 18 15 14 12 13 15 14 9 11 13 13 5 0 1 4 5 6 5 8 12 14 12 13 14 15 17 18 19 19 20 21 22 22 25 26 25 23 23 23 21 19 20 20
23 26 30 27 26 24 20 19 17 15 15 17 16 13 14 14 13 11 2 4 5 5 6 9 7 10 13 19 18 16 17 18 19 20 20 22 23 25 26 30 30 32 25 20 22 22 20 19 20
22 32 23 29 29 26 23 22 21 19 18 18 17 13 15 11 11 9 12 4 7 9 8 8 10 10 14 21 22 20 18 18 19 19 20 23 24 27 30 31 34 31 21 20 21 22 20 20 18
21 22 24 25 30 29 25 21 25 24 18 15 16 14 14 15 11 12 12 9 5 10 9 10 11 11 10 11 18 22 21 20 20 20 21 24 26 29 31 33 34 28 22 20 21 22 20 20 16
18 18 19 22 28 28 26 25 22 21 20 19 16 18 15 16 20 20 19 15 13 11 14 12 15 14 12 14 15 20 22 23 23 22 23 25 28 30 33 34 32 28 23 20 19 20 20 19 15
14 16 18 21 22 22 27 24 22 14 17 16 16 18 20 21 24 27 24 19 16 15 18 18 17 16 16 17 17 18 19 22 23 24 25 26 29 30 32 32 31 29 25 20 18 17 16 17 16
18 18 19 19 18 19 19 24 23 21 20 19 19 19 23 25 26 23 20 20 20 19 19 20 19 19 21 19 20 19 21 22 24 26 27 27 29 31 34 31 30 29 25 22 18 15 16 16 15
17 15 17 18 17 16 16 24 20 20 20 20 20 20 20 23 24 25 24 24 24 24 21 21 20 20 20 21 23 23 23 24 26 27 28 28 31 30 31 31 31 29 27 24 22 20 19 20 21
15 17 17 17 17 15 16 25 19 20 21 21 23 24 23 25 27 26 28 27 26 26 23 22 22 23 24 23 26 29 31 30 31 28 29 30 30 31 31 32 33 30 29 27 26 26 26 27 26
16 17 18 21 21 20 22 27 26 26 26 26 26 28 28 27 28 28 30 30 29 28 27 24 23 21 24 26 27 30 32 33 32 34 36 37 37 37 36 36 35 34 31 31 31 30 29 30 28
19 20 23 27 29 28 29 29 27 28 27 26 25 28 29 30 30 30 31 33 32 31 30 28 27 23 22 21 27 31 34 36 38 41 42 40 40 42 41 42 42 41 40 36 35 32 32 31 29
24 25 28 30 30 29 33 31 27 26 24 22 21 23 25 28 30 30 29 30 32 33 32 31 29 30 31 30 25 29 34 37 39 42 46 47 45 44 43 44 45 45 45 40 40 36 34 33 32
28 28 29 28 28 29 30 30 29 27 24 23 22 24 26 28 30 31 31 32 32 32 33 34 34 33 34 34 32 32 35 38 43 48 46 49 52 53 54 50 47 46 49 51 40 38 36 36 31
28 27 28 28 28 27 29 25 31 27 26 25 25 27 28 30 33 34 34 34 34 35 34 34 34 36 37 38 36 36 39 41 44 51 50 52 55 55 60 58 54 52 52 42 38 41 39 40 39
30 30 29 28 29 29 29 30 23 31 29 29 30 30 31 32 32 34 36 36 36 36 37 38 37 38 39 41 44 44 42 43 48 50 56 59 53 59 67 63 63 59 44 36 33 49 23 19 18
32 31 32 32 32 35 29 31 26 33 29 32 32 33 34 35 36 35 36 37 38 38 39 39 40 41 42 43 45 46 47 46 49 53 54 58 57 62 62 59 63 60 43 37 33 20 14 12 11
34 34 32 33 34 31 35 34 32 38 32 33 35 35 37 37 38 38 38 38 38 40 41 41 42 43 43 44 45 46 48 49 47 50 55 58 62 61 59 59 52 51 38 30 24 22 19 17 19
37 35 33 25 23 22 39 39 36 35 35 36 36 36 36 37 39 40 41 42 42 41 42 43 44 45 45 45 45 47 49 48 47 47 50 55 57 51 50 53 57 54 50 38 33 29 23 21 28
36 39 36 38 39 41 39 39 45 41 37 37 38 39 39 39 39 39 41 44 46 46 46 45 44 44 45 45 46 45 46 46 47 47 46 47 50 46 44 42 48 50 51 45 39 34 32 30 32
41 38 39 37 41 41 45 43 35 47 41 39 38 39 39 39 40 41 42 44 46 47 46 44 42 42 44 44 44 44 45 46 46 45 43 41 44 44 43 43 38 40 45 54 47 44 40 38 33
44 43 43 41 37 34 38 31 35 45 47 41 39 40 42 41 40 40 41 43 44 44 42 40 39 40 41 41 42 44 45 46 46 44 41 41 43 45 44 45 45 45 38 44 49 49 45 42 39
47 47 44 44 46 46 47 45 44 47 48 45 43 43 43 40 39 39 40 41 42 42 40 38 39 40 40 40 40 42 42 41 42 42 41 42 43 43 42 43 47 47 43 45 51 54 47 42 44
Wind_Direction
184 203 201 187 175 134 167 195 249 211 191 170 139 133 118 125 126 89 76 62 65 78 88 88 223 259 283 294 290 284 258 168 143 98 61 42 23 13 7 3 2 357 355 355 352 351 348 347 352
186 198 207 199 141 140 181 179 182 195 224 307 311 6 60 84 141 78 53 40 46 64 73 53 194 203 240 263 270 275 270 260 266 308 8 4 5 355 354 356 355 351 349 349 347 345 344 343 347
185 193 211 196 173 179 153 151 177 206 168 308 354 319 348 13 18 26 21 23 16 44 56 186 214 228 222 234 236 250 251 246 252 265 302 325 335 337 342 345 346 341 337 338 342 342 344 342 342
178 183 208 173 197 197 190 161 184 221 271 330 352 4 4 357 341 351 17 15 36 54 60 49 236 227 234 234 220 226 237 242 248 252 260 275 294 312 320 328 328 329 328 328 332 340 342 339 337
178 180 198 195 217 209 216 220 255 256 270 299 316 353 359 7 11 339 346 31 33 60 69 72 54 348 275 253 225 222 237 245 251 261 268 277 293 303 312 316 315 321 320 324 323 332 335 337 337
180 187 191 217 225 223 223 233 246 262 289 299 344 347 347 350 1 336 278 300 353 54 83 85 66 52 309 260 233 227 238 250 258 262 266 269 279 289 299 304 314 320 319 325 329 323 327 330 330
187 182 203 202 236 235 233 233 231 253 274 293 321 330 341 350 10 355 279 306 316 294 260 187 152 88 342 267 227 225 230 239 249 257 263 267 276 283 290 301 313 317 323 324 324 318 313 314 320
191 194 207 224 234 242 246 238 235 245 258 284 307 322 338 360 17 46 275 288 274 267 260 224 235 240 237 247 254 246 244 247 253 258 260 264 269 276 283 293 303 309 311 312 314 318 312 311 316
195 198 205 229 235 242 250 257 265 268 268 293 302 316 326 343 338 348 141 247 251 266 226 258 284 256 236 233 239 244 247 251 254 257 259 262 268 274 282 290 297 304 308 304 306 314 314 312 313
198 200 217 227 237 245 250 257 268 272 285 291 301 297 309 318 338 323 297 201 234 237 272 261 283 292 254 243 239 242 251 256 260 262 263 266 270 277 283 289 297 302 302 294 294 304 315 314 310
201 205 225 227 234 245 255 260 265 270 274 284 290 297 305 303 323 325 308 273 257 272 275 252 274 268 272 250 245 243 247 254 260 264 267 266 267 274 280 288 297 301 299 284 292 298 304 311 313
208 217 222 232 233 239 253 264 262 267 268 287 291 289 288 302 313 322 321 296 245 273 270 274 251 270 276 276 253 243 250 252 251 254 261 265 267 273 281 288 295 296 294 289 293 298 302 305 315
217 222 227 232 237 240 250 258 263 266 275 277 282 290 298 303 308 310 305 292 273 261 273 260 262 264 258 248 244 239 238 240 239 240 249 256 264 272 281 288 290 291 293 296 298 299 299 301 306
210 209 214 226 233 240 245 253 259 262 269 275 281 286 292 297 299 296 286 283 289 276 272 272 274 271 265 254 248 246 243 241 241 242 245 253 261 269 276 283 285 288 292 297 303 304 299 297 299
217 216 221 231 234 242 245 253 257 265 272 277 280 284 285 285 283 279 284 287 288 285 277 274 271 274 275 265 250 250 255 257 251 246 248 252 260 266 274 277 280 284 289 296 300 295 292 289 288
232 233 235 244 247 249 249 262 255 263 268 273 276 275 275 274 274 277 279 283 287 286 287 289 270 268 269 268 259 259 268 268 264 260 257 258 262 270 274 277 280 283 291 296 295 291 289 285 281
231 240 243 248 252 255 252 256 271 269 269 272 275 274 271 269 274 278 276 275 280 281 284 282 286 280 272 271 262 268 269 275 270 268 265 264 264 268 272 276 280 284 287 288 288 287 285 281 277
228 240 250 258 257 259 262 265 272 275 277 278 280 280 277 274 277 279 279 280 282 283 284 283 280 281 282 275 272 268 269 270 271 270 270 267 266 268 270 274 279 283 283 283 279 277 276 275 276
241 250 258 262 268 271 269 270 273 275 276 278 278 278 278 277 274 270 273 278 281 282 282 279 277 269 268 270 270 269 271 272 275 279 278 276 278 275 275 275 274 275 273 273 271 270 269 270 272
255 260 261 264 265 267 271 273 273 272 272 273 274 275 274 275 274 273 272 270 270 273 275 277 273 270 267 269 267 263 266 274 281 278 277 278 277 277 277 274 271 268 268 267 266 267 268 271 268
261 262 263 264 268 268 265 266 268 268 269 274 273 273 276 277 278 279 278 278 275 270 271 273 272 266 265 267 267 264 262 267 271 273 274 277 278 277 272 270 272 273 268 260 256 264 263 265 261
264 261 266 266 265 265 263 263 269 264 268 270 271 274 277 279 278 277 277 278 277 277 274 271 270 272 271 272 270 268 270 269 265 267 267 273 269 272 275 273 270 269 273 278 237 257 262 266 252
263 267 265 266 265 260 264 267 263 272 271 274 276 277 280 281 278 278 280 279 278 275 275 274 272 270 272 274 278 280 277 275 273 275 270 275 272 277 271 270 275 273 281 262 274 254 245 254 224
264 266 268 270 268 268 271 268 269 274 272 277 279 281 281 280 281 279 278 280 279 277 275 272 272 271 271 271 272 274 274 273 275 275 274 276 275 275 283 286 289 273 272 261 258 252 222 252 245
267 269 271 271 271 276 267 270 268 273 278 277 278 279 281 282 282 283 281 278 277 276 275 274 272 271 270 271 272 272 272 273 273 276 278 277 275 278 283 282 284 283 271 269 258 250 239 240 249
264 265 262 260 259 263 271 271 271 273 275 277 277 278 280 280 281 283 285 283 280 276 273 272 272 273 273 272 272 275 277 276 273 273 277 279 283 288 290 284 278 277 273 272 272 270 263 245 255
263 263 263 263 264 265 264 274 278 276 277 275 276 277 278 279 281 283 283 283 282 281 278 276 275 274 274 273 272 273 274 274 276 277 279 283 284 284 282 274 272 269 261 269 269 266 266 254 255
256 260 261 262 262 263 271 273 270 279 278 277 277 278 278 280 280 281 281 282 281 280 279 278 278 277 276 276 278 279 279 278 278 279 280 279 281 278 270 268 258 262 258 261 257 257 255 253 255
258 257 258 258 254 258 268 270 274 278 277 277 278 280 281 282 282 283 283 281 280 279 280 281 280 279 280 281 281 280 279 278 278 281 278 277 277 281 279 268 260 260 254 250 251 254 247 249 248
253 258 260 260 262 267 264 263 265 271 277 281 281 280 280 283 284 283 281 280 281 283 285 285 283 281 280 281 281 279 279 279 280 282 280 276 276 277 276 274 268 257 245 250 247 250 241 245 247
Height
5924 5924 5925 5929 5936 5937 5938 5939 5938 5938 5938 5938 5938 5937 5937 5935 5935 5937 5935 5933 5933 5932 5933 5933 5935 5935 5935 5935 5934 5934 5933 5933 5932 5932 5931 5931 5931 5929 5928 5926 5924 5923 5922 5920 5919 5918 5917 5915 5913
5922 5923 5925 5929 5938 5942 5938 5937 5937 5937 5937 5938 5938 5938 5936 5935 5934 5934 5934 5933 5932 5931 5931 5931 5932 5932 5933 5933 5934 5934 5934 5933 5933 5933 5932 5931 5930 5928 5927 5925 5923 5922 5921 5919 5918 5917 5916 5915 5913
5922 5922 5924 5929 5934 5937 5936 5936 5936 5936 5938 5938 5939 5938 5937 5936 5934 5933 5933 5932 5931 5930 5929 5929 5929 5930 5931 5931 5932 5933 5933 5932 5932 5932 5932 5931 5930 5928 5926 5924 5922 5921 5920 5918 5917 5916 5915 5913 5911
5921 5923 5925 5930 5931 5933 5935 5936 5936 5936 5937 5939 5940 5939 5937 5935 5934 5933 5932 5931 5930 5929 5928 5928 5928 5927 5928 5929 5930 5931 5931 5931 5931 5931 5930 5929 5929 5927 5925 5923 5921 5920 5919 5917 5915 5914 5912 5911 5910
5920 5921 5925 5928 5929 5932 5934 5935 5935 5935 5936 5939 5940 5938 5936 5934 5933 5932 5932 5931 5930 5929 5928 5927 5927 5927 5927 5928 5928 5929 5930 5931 5930 5930 5930 5929 5928 5926 5923 5922 5920 5918 5917 5915 5914 5912 5911 5910 5909
5919 5921 5926 5928 5926 5930 5932 5934 5935 5935 5936 5937 5938 5936 5934 5933 5931 5931 5930 5930 5929 5928 5927 5927 5927 5926 5926 5927 5927 5928 5928 5929 5929 5928 5928 5927 5926 5924 5923 5921 5919 5917 5915 5913 5911 5910 5910 5909 5908
5918 5921 5924 5924 5923 5926 5930 5932 5934 5934 5935 5935 5935 5934 5934 5931 5930 5929 5929 5928 5928 5927 5926 5926 5925 5925 5926 5925 5926 5926 5926 5926 5926 5926 5925 5925 5924 5923 5921 5920 5919 5917 5915 5913 5911 5909 5907 5907 5906
5916 5918 5920 5921 5922 5923 5926 5929 5931 5933 5933 5933 5934 5933 5932 5930 5929 5928 5928 5927 5926 5925 5925 5924 5924 5924 5924 5924 5924 5924 5924 5924 5924 5923 5922 5922 5921 5920 5919 5918 5918 5916 5915 5912 5910 5908 5906 5905 5904
5914 5917 5921 5917 5920 5921 5923 5926 5928 5929 5931 5931 5932 5931 5931 5929 5929 5928 5927 5925 5924 5923 5923 5922 5922 5921 5921 5920 5921 5921 5921 5922 5921 5920 5919 5918 5917 5917 5916 5915 5915 5915 5913 5911 5908 5906 5906 5904 5902
5912 5915 5915 5915 5917 5918 5921 5923 5924 5927 5928 5929 5929 5928 5928 5928 5928 5927 5926 5925 5923 5921 5921 5919 5919 5917 5917 5917 5917 5917 5918 5918 5918 5918 5917 5916 5914 5914 5912 5912 5911 5911 5910 5908 5906 5904 5903 5902 5900
5909 5910 5910 5913 5915 5917 5919 5920 5922 5924 5926 5924 5925 5926 5926 5926 5925 5924 5924 5923 5921 5919 5918 5917 5916 5914 5913 5912 5912 5913 5913 5913 5914 5914 5913 5912 5911 5909 5908 5907 5907 5905 5905 5904 5903 5902 5900 5899 5898
5907 5907 5909 5910 5912 5915 5916 5918 5920 5921 5920 5922 5923 5924 5924 5923 5923 5923 5922 5922 5920 5917 5916 5915 5915 5914 5911 5909 5909 5909 5910 5909 5909 5910 5909 5908 5907 5905 5904 5903 5902 5900 5900 5900 5900 5899 5897 5897 5895
5905 5906 5908 5908 5909 5912 5913 5915 5916 5916 5918 5919 5920 5920 5920 5921 5920 5920 5919 5918 5916 5915 5913 5912 5911 5910 5908 5906 5904 5903 5902 5902 5902 5902 5902 5901 5901 5901 5900 5899 5897 5896 5895 5897 5897 5895 5894 5893 5892
5903 5903 5904 5905 5905 5908 5910 5911 5913 5913 5915 5915 5916 5917 5917 5917 5917 5916 5914 5913 5913 5913 5912 5911 5909 5907 5905 5903 5902 5901 5899 5898 5897 5897 5896 5896 5896 5896 5895 5894 5892 5892 5892 5893 5893 5892 5891 5890 5889
5899 5901 5902 5902 5904 5904 5907 5908 5908 5911 5911 5912 5913 5914 5914 5913 5911 5909 5910 5910 5910 5910 5909 5907 5906 5904 5903 5902 5900 5898 5897 5896 5894 5892 5892 5891 5891 5891 5890 5889 5888 5888 5888 5890 5890 5889 5888 5886 5884
5898 5900 5901 5901 5903 5904 5906 5904 5905 5907 5908 5909 5909 5910 5910 5908 5907 5906 5906 5906 5906 5905 5905 5904 5903 5901 5900 5899 5899 5898 5895 5893 5891 5891 5890 5888 5887 5887 5886 5885 5883 5884 5885 5886 5885 5885 5884 5883 5881
5896 5897 5898 5899 5901 5902 5903 5900 5901 5903 5904 5905 5904 5904 5904 5903 5902 5902 5901 5901 5901 5899 5900 5899 5898 5897 5897 5896 5895 5894 5892 5890 5889 5887 5886 5884 5883 5881 5880 5879 5878 5879 5879 5879 5879 5879 5879 5877 5876
5894 5895 5895 5895 5897 5898 5899 5897 5897 5897 5897 5898 5898 5897 5897 5897 5896 5896 5894 5894 5895 5894 5894 5894 5894 5893 5893 5892 5890 5889 5887 5886 5884 5882 5881 5879 5878 5877 5876 5874 5873 5875 5875 5874 5872 5871 5871 5868 5868
5891 5892 5891 5890 5890 5892 5891 5891 5890 5890 5891 5891 5891 5889 5889 5889 5889 5889 5888 5887 5888 5887 5888 5888 5887 5887 5886 5885 5885 5883 5882 5880 5879 5878 5876 5875 5875 5873 5871 5868 5866 5865 5866 5865 5864 5863 5862 5861 5861
5886 5887 5886 5885 5885 5886 5883 5884 5884 5883 5883 5884 5884 5883 5882 5881 5881 5882 5883 5882 5881 5880 5880 5880 5880 5879 5879 5878 5877 5876 5875 5874 5873 5871 5869 5869 5868 5867 5864 5862 5859 5856 5856 5856 5854 5853 5854 5856 5856
5879 5880 5879 5880 5879 5879 5878 5878 5877 5877 5877 5877 5878 5877 5876 5875 5873 5873 5873 5874 5873 5873 5873 5872 5871 5871 5870 5869 5869 5868 5867 5867 5865 5862 5860 5860 5859 5858 5855 5852 5849 5851 5844 5838 5845 5846 5846 5847 5849
5871 5872 5873 5873 5874 5874 5871 5874 5869 5870 5870 5871 5871 5871 5870 5869 5867 5866 5865 5865 5864 5863 5864 5864 5863 5862 5861 5860 5860 5859 5857 5856 5854 5852 5850 5849 5850 5848 5843 5840 5839 5841 5835 5809 5826 5833 5835 5837 5839
5864 5865 5865 5865 5865 5865 5866 5866 5866 5862 5864 5864 5863 5863 5863 5861 5859 5858 5857 5856 5856 5856 5855 5854 5853 5853 5852 5851 5850 5850 5849 5848 5844 5844 5841 5838 5836 5836 5832 5831 5828 5830 5827 5823 5820 5818 5825 5825 5831
5856 5857 5856 5856 5856 5854 5858 5857 5858 5852 5858 5855 5854 5853 5854 5853 5851 5851 5849 5848 5847 5846 5845 5845 5844 5842 5841 5840 5839 5838 5837 5836 5833 5831 5830 5826 5827 5827 5826 5822 5818 5817 5818 5818 5816 5813 5814 5820 5824
5846 5847 5848 5847 5846 5847 5845 5847 5849 5844 5847 5846 5845 5844 5844 5843 5842 5841 5840 5839 5837 5836 5835 5834 5833 5831 5830 5829 5828 5827 5826 5824 5823 5819 5816 5814 5812 5813 5811 5809 5808 5806 5809 5806 5806 5809 5808 5811 5816
5835 5838 5840 5840 5842 5844 5833 5836 5837 5840 5838 5836 5835 5835 5834 5833 5832 5831 5829 5828 5827 5826 5825 5824 5822 5821 5820 5818 5817 5815 5813 5812 5811 5810 5806 5801 5796 5794 5792 5792 5794 5795 5798 5796 5796 5801 5803 5804 5808
5827 5826 5829 5828 5829 5828 5829 5826 5824 5826 5828 5826 5825 5825 5825 5823 5823 5821 5819 5817 5815 5814 5814 5813 5812 5811 5809 5807 5805 5804 5802 5800 5798 5794 5791 5787 5783 5782 5780 5780 5781 5782 5784 5787 5787 5787 5791 5796 5799
5816 5817 5817 5817 5818 5815 5817 5817 5818 5812 5814 5814 5815 5814 5813 5813 5812 5811 5809 5806 5804 5803 5802 5801 5800 5798 5796 5795 5793 5790 5788 5786 5783 5781 5777 5774 5771 5770 5770 5769 5767 5767 5766 5771 5774 5778 5781 5785 5787
5805 5805 5805 5807 5808 5807 5807 5812 5806 5801 5800 5803 5803 5802 5801 5801 5800 5799 5797 5794 5792 5791 5789 5788 5787 5786 5784 5783 5780 5777 5775 5772 5770 5768 5765 5763 5760 5756 5755 5756 5755 5756 5756 5754 5758 5762 5764 5771 5774
5794 5793 5794 5791 5798 5795 5794 5797 5796 5792 5788 5790 5790 5790 5789 5789 5788 5787 5785 5783 5781 5779 5777 5776 5775 5774 5772 5770 5768 5765 5762 5760 5757 5754 5752 5750 5747 5744 5743 5743 5744 5744 5742 5743 5744 5747 5750 5757 5762